Precipitable_Water
1.49 1.43 1.39 1.33 1.30 1.26 1.25 1.25 1.21 1.18 1.12 1.10 1.09 1.08 1.09 1.08 1.08 1.08 1.11 1.07 1.10 1.10 1.08 1.07 1.10 1.12 1.15 1.18 1.16 1.22 1.24 1.25 1.28 1.31 1.29 1.29 1.31 1.35 1.44 1.48 1.44 1.42 1.43 1.48 1.57 1.57 1.50 1.46 1.45 1.45 1.46 1.40 1.40 1.43 1.49 1.51 1.51 1.46 1.45 1.38 1.29 1.32 1.27 1.21 1.08 1.07 1.25 1.40 1.36 1.33 1.38 1.30 1.31 1.35 1.33 1.32 1.39 1.39 1.36 1.39 1.46 1.47 1.51 1.65 1.60
1.53 1.52 1.48 1.41 1.33 1.29 1.29 1.29 1.27 1.24 1.14 1.10 1.05 1.04 1.04 1.05 1.05 1.08 1.05 1.07 1.05 1.03 1.04 1.05 1.05 1.06 1.07 1.10 1.14 1.17 1.21 1.18 1.21 1.23 1.24 1.24 1.26 1.31 1.29 1.29 1.33 1.34 1.39 1.40 1.44 1.49 1.50 1.44 1.47 1.47 1.47 1.39 1.39 1.40 1.44 1.46 1.43 1.41 1.38 1.33 1.30 1.33 1.41 1.24 1.17 1.10 1.07 1.30 1.33 1.44 1.35 1.41 1.26 1.42 1.27 1.22 1.26 1.31 1.31 1.35 1.35 1.42 1.38 1.55 1.57
1.61 1.59 1.54 1.48 1.42 1.39 1.37 1.34 1.31 1.25 1.20 1.15 1.07 1.02 1.01 1.01 1.05 1.04 1.01 1.04 1.06 1.01 1.00 1.00 1.03 1.03 1.02 1.06 1.10 1.10 1.13 1.15 1.14 1.17 1.20 1.21 1.20 1.22 1.27 1.29 1.27 1.27 1.30 1.33 1.37 1.43 1.42 1.41 1.41 1.47 1.50 1.42 1.38 1.36 1.40 1.41 1.41 1.38 1.36 1.38 1.34 1.34 1.38 1.39 1.25 1.11 1.09 1.15 1.26 1.25 1.31 1.34 1.23 1.27 1.33 1.34 1.33 1.37 1.29 1.35 1.26 1.32 1.42 1.40 1.54
1.68 1.63 1.58 1.54 1.54 1.50 1.44 1.39 1.35 1.31 1.23 1.19 1.12 1.08 1.03 1.01 1.02 1.00 1.01 1.02 1.03 1.02 0.98 0.99 1.01 1.01 0.98 1.00 1.03 1.04 1.07 1.07 1.09 1.11 1.13 1.15 1.16 1.15 1.16 1.20 1.22 1.24 1.24 1.29 1.37 1.40 1.39 1.40 1.41 1.43 1.45 1.42 1.41 1.36 1.36 1.38 1.39 1.37 1.34 1.35 1.32 1.32 1.34 1.35 1.34 1.23 1.17 1.05 1.17 1.18 1.26 1.22 1.23 1.30 1.32 1.34 1.36 1.34 1.32 1.35 1.38 1.36 1.27 1.45 1.56
1.70 1.68 1.64 1.58 1.57 1.55 1.50 1.46 1.39 1.34 1.28 1.24 1.17 1.16 1.11 1.06 1.04 0.97 0.97 0.97 1.00 1.02 1.00 0.97 0.97 0.99 0.93 0.93 0.95 0.97 0.99 1.02 1.02 1.04 1.10 1.14 1.13 1.12 1.15 1.17 1.17 1.16 1.17 1.20 1.25 1.31 1.36 1.36 1.40 1.40 1.40 1.37 1.39 1.38 1.36 1.32 1.35 1.35 1.31 1.33 1.31 1.32 1.33 1.32 1.33 1.31 1.22 1.11 1.13 1.23 1.27 1.24 1.28 1.31 1.34 1.24 1.28 1.36 1.42 1.40 1.32 1.36 1.34 1.37 1.55
1.76 1.69 1.67 1.62 1.59 1.56 1.54 1.51 1.44 1.39 1.35 1.31 1.26 1.23 1.20 1.15 1.09 1.03 0.97 0.93 0.94 0.96 0.99 0.97 0.93 0.92 0.91 0.89 0.90 0.91 0.93 0.97 1.00 1.00 1.02 1.08 1.11 1.10 1.11 1.13 1.14 1.16 1.16 1.16 1.17 1.21 1.22 1.29 1.34 1.35 1.34 1.30 1.32 1.35 1.35 1.32 1.34 1.32 1.29 1.28 1.29 1.30 1.29 1.28 1.28 1.25 1.20 1.17 1.14 1.12 1.24 1.21 1.20 1.22 1.27 1.27 1.18 1.16 1.22 1.38 1.43 1.49 1.39 1.29 1.42
1.74 1.72 1.68 1.63 1.60 1.56 1.54 1.51 1.49 1.47 1.45 1.41 1.38 1.34 1.28 1.23 1.17 1.11 1.06 0.96 0.92 0.90 0.93 0.96 0.96 0.91 0.90 0.88 0.87 0.89 0.89 0.90 0.93 0.95 0.95 0.98 1.04 1.08 1.07 1.07 1.10 1.11 1.12 1.12 1.14 1.18 1.22 1.23 1.26 1.30 1.30 1.28 1.27 1.28 1.30 1.29 1.27 1.26 1.28 1.28 1.27 1.25 1.23 1.23 1.24 1.23 1.21 1.17 1.18 1.18 1.18 1.27 1.25 1.16 1.34 1.35 1.22 1.16 1.11 1.16 1.21 1.43 1.44 1.39 1.32
1.76 1.72 1.72 1.68 1.60 1.57 1.55 1.55 1.54 1.53 1.52 1.51 1.48 1.42 1.37 1.32 1.27 1.23 1.21 1.12 1.01 0.93 0.90 0.92 0.96 0.94 0.91 0.90 0.88 0.90 0.91 0.91 0.92 0.92 0.92 0.92 0.93 0.97 1.00 0.99 1.00 1.05 1.08 1.10 1.10 1.11 1.15 1.20 1.25 1.29 1.28 1.30 1.28 1.27 1.28 1.28 1.31 1.26 1.28 1.28 1.26 1.21 1.17 1.18 1.19 1.22 1.22 1.19 1.15 1.14 1.17 1.15 1.18 1.21 1.26 1.30 1.25 1.26 1.35 1.29 1.15 1.20 1.31 1.40 1.43
1.75 1.73 1.71 1.72 1.66 1.63 1.63 1.61 1.59 1.57 1.56 1.55 1.52 1.47 1.43 1.40 1.36 1.33 1.29 1.24 1.20 1.14 1.08 1.02 1.00 0.99 0.97 0.94 0.92 0.92 0.91 0.92 0.94 0.94 0.90 0.90 0.90 0.91 0.95 0.97 0.95 0.92 0.95 1.01 1.07 1.09 1.08 1.10 1.17 1.23 1.29 1.31 1.31 1.31 1.32 1.33 1.30 1.26 1.29 1.28 1.26 1.21 1.17 1.14 1.14 1.14 1.15 1.12 1.10 1.14 1.10 1.11 1.14 1.12 1.12 1.13 1.10 1.11 1.25 1.25 1.17 1.22 1.35 1.38 1.46
1.71 1.73 1.70 1.68 1.71 1.71 1.70 1.68 1.63 1.61 1.58 1.54 1.53 1.51 1.49 1.46 1.43 1.39 1.35 1.32 1.30 1.28 1.24 1.20 1.15 1.10 1.09 1.08 1.04 1.00 0.95 0.94 0.95 0.91 0.89 0.90 0.91 0.88 0.92 0.96 0.96 0.95 0.94 0.94 0.94 0.99 1.04 1.09 1.10 1.14 1.20 1.25 1.27 1.27 1.24 1.22 1.25 1.27 1.32 1.37 1.34 1.25 1.18 1.14 1.13 1.15 1.14 1.09 1.07 1.08 1.05 1.05 1.10 1.17 1.19 1.25 1.29 1.31 1.29 1.32 1.23 1.30 1.32 1.31 1.35
1.76 1.74 1.72 1.74 1.75 1.74 1.72 1.70 1.68 1.64 1.61 1.59 1.58 1.56 1.53 1.52 1.48 1.45 1.42 1.40 1.37 1.36 1.33 1.27 1.23 1.20 1.17 1.16 1.15 1.12 1.08 1.04 0.99 0.93 0.89 0.86 0.89 0.95 0.96 0.97 0.99 0.97 0.94 0.91 0.89 0.90 0.98 1.06 1.10 1.12 1.11 1.12 1.16 1.18 1.17 1.16 1.17 1.19 1.20 1.24 1.32 1.34 1.28 1.23 1.16 1.15 1.13 1.12 1.14 1.10 1.04 1.02 1.06 1.11 1.09 1.09 1.18 1.26 1.27 1.27 1.25 1.22 1.21 1.16 1.10
1.89 1.81 1.80 1.80 1.77 1.73 1.71 1.71 1.68 1.65 1.64 1.61 1.61 1.61 1.60 1.57 1.52 1.50 1.47 1.44 1.44 1.42 1.37 1.33 1.29 1.27 1.24 1.21 1.19 1.19 1.18 1.15 1.08 1.00 0.95 0.91 0.90 0.93 0.99 1.02 1.03 1.02 0.99 0.94 0.92 0.94 0.95 0.98 1.05 1.10 1.13 1.12 1.12 1.12 1.09 1.09 1.10 1.11 1.15 1.18 1.19 1.21 1.23 1.22 1.19 1.18 1.17 1.12 1.09 1.08 1.06 1.03 1.05 1.10 1.09 1.09 1.17 1.25 1.28 1.23 1.22 1.18 1.16 1.17 1.18
2.05 2.00 1.91 1.86 1.82 1.80 1.76 1.71 1.68 1.66 1.64 1.64 1.65 1.67 1.65 1.60 1.56 1.52 1.48 1.49 1.50 1.46 1.41 1.37 1.34 1.32 1.28 1.23 1.19 1.20 1.20 1.20 1.14 1.08 1.03 0.99 0.97 0.96 0.96 1.00 1.03 1.04 1.04 1.02 0.99 0.97 0.99 1.00 1.00 1.03 1.09 1.15 1.14 1.16 1.16 1.09 1.04 1.05 1.07 1.11 1.14 1.13 1.10 1.11 1.13 1.12 1.17 1.15 1.10 1.09 1.10 1.09 1.04 1.04 1.13 1.15 1.19 1.07 1.12 1.10 1.13 1.17 1.21 1.21 1.25
2.12 2.07 2.05 1.96 1.90 1.89 1.84 1.74 1.68 1.66 1.66 1.66 1.67 1.67 1.65 1.62 1.59 1.58 1.57 1.58 1.54 1.48 1.45 1.41 1.38 1.35 1.31 1.26 1.22 1.21 1.20 1.21 1.16 1.11 1.08 1.06 1.04 1.03 1.02 1.01 1.00 1.01 1.05 1.06 1.06 1.05 1.03 1.01 0.99 0.98 1.01 1.09 1.13 1.09 1.10 1.11 1.13 1.07 1.04 1.06 1.05 1.04 1.03 1.01 0.98 1.00 1.03 1.03 1.04 0.99 1.06 1.11 1.01 1.05 1.13 1.19 1.08 0.99 0.99 1.00 1.08 1.09 1.16 1.20 1.32
2.05 2.12 2.10 2.07 2.01 1.96 1.93 1.83 1.72 1.69 1.69 1.67 1.67 1.66 1.64 1.63 1.63 1.61 1.59 1.55 1.52 1.46 1.43 1.41 1.41 1.39 1.36 1.34 1.29 1.24 1.22 1.22 1.19 1.14 1.11 1.10 1.10 1.10 1.10 1.08 1.04 1.02 1.02 1.06 1.07 1.08 1.09 1.08 1.04 1.01 1.03 1.05 1.10 1.10 1.04 1.03 1.06 1.11 1.11 1.07 1.05 1.05 1.05 0.99 0.94 0.92 0.92 0.94 0.92 0.90 0.93 1.04 1.10 1.11 1.12 1.15 1.13 1.14 1.12 1.07 1.11 1.13 1.20 1.28 1.28
2.00 2.05 2.10 2.16 2.13 2.05 1.99 1.93 1.85 1.76 1.73 1.71 1.67 1.65 1.67 1.66 1.61 1.63 1.60 1.58 1.57 1.55 1.52 1.47 1.41 1.38 1.37 1.36 1.34 1.29 1.29 1.28 1.26 1.22 1.19 1.18 1.20 1.21 1.18 1.13 1.08 1.04 1.03 1.04 1.07 1.09 1.09 1.09 1.07 1.04 1.03 1.05 1.09 1.10 1.04 1.05 1.07 1.05 1.05 1.07 1.11 1.14 1.12 1.13 1.10 1.05 0.96 0.94 0.94 0.93 0.96 1.04 1.09 1.12 1.16 1.17 1.21 1.24 1.23 1.24 1.22 1.16 1.07 1.04 1.02
1.89 1.98 2.05 2.09 2.14 2.18 2.09 2.00 1.93 1.89 1.82 1.75 1.69 1.66 1.65 1.66 1.68 1.69 1.63 1.58 1.53 1.51 1.49 1.48 1.48 1.43 1.40 1.39 1.35 1.30 1.28 1.31 1.28 1.26 1.25 1.26 1.28 1.27 1.24 1.20 1.16 1.11 1.07 1.07 1.08 1.09 1.10 1.11 1.09 1.05 1.06 1.06 1.09 1.09 1.05 1.02 1.01 1.04 1.07 1.07 1.08 1.07 1.09 1.21 1.25 1.18 1.10 1.01 0.97 0.97 1.00 1.03 1.07 1.10 1.10 1.12 1.11 1.14 1.15 1.04 0.94 0.98 0.95 0.89 0.90
1.75 1.88 1.98 2.07 2.10 2.16 2.19 2.13 2.01 1.96 1.92 1.83 1.75 1.72 1.71 1.72 1.70 1.72 1.63 1.58 1.55 1.52 1.52 1.52 1.53 1.51 1.46 1.42 1.41 1.36 1.33 1.36 1.34 1.30 1.28 1.29 1.29 1.28 1.28 1.24 1.19 1.17 1.14 1.14 1.13 1.11 1.12 1.10 1.12 1.10 1.06 1.08 1.12 1.10 1.08 1.06 1.00 1.00 1.02 1.02 1.01 0.99 1.01 1.07 1.18 1.26 1.18 1.12 1.04 1.01 1.00 1.01 1.04 1.06 1.08 1.08 1.08 1.12 1.06 0.88 0.90 0.97 0.94 0.97 0.90
1.56 1.71 1.88 2.01 2.08 2.12 2.16 2.17 2.17 2.07 1.98 1.93 1.91 1.82 1.76 1.73 1.74 1.76 1.70 1.66 1.61 1.60 1.57 1.52 1.52 1.54 1.53 1.50 1.49 1.43 1.40 1.42 1.41 1.36 1.34 1.33 1.33 1.33 1.31 1.26 1.19 1.17 1.15 1.12 1.14 1.13 1.12 1.12 1.10 1.09 1.10 1.11 1.13 1.12 1.10 1.09 1.04 1.03 1.01 0.99 0.94 0.93 0.98 1.10 1.12 1.16 1.19 1.09 1.04 1.01 0.97 0.98 1.01 1.03 1.04 1.03 1.06 1.09 1.10 1.04 1.05 0.99 0.92 0.94 0.95
1.48 1.61 1.73 1.87 2.00 2.08 2.11 2.12 2.13 2.15 2.15 2.10 2.09 2.02 1.96 1.88 1.81 1.78 1.75 1.72 1.66 1.62 1.58 1.53 1.49 1.50 1.55 1.57 1.55 1.52 1.46 1.46 1.48 1.42 1.39 1.38 1.37 1.38 1.37 1.27 1.18 1.15 1.16 1.12 1.09 1.09 1.10 1.11 1.11 1.06 1.05 1.07 1.11 1.11 1.10 1.09 1.07 1.08 1.08 0.99 0.94 0.89 1.02 1.08 1.15 1.16 1.22 1.25 1.18 1.13 1.02 1.02 1.03 1.03 1.02 1.02 1.02 1.02 1.04 1.07 1.08 1.06 1.02 1.00 1.00
1.39 1.49 1.63 1.76 1.88 2.02 2.14 2.16 2.13 2.16 2.22 2.26 2.19 2.19 2.12 2.08 1.99 1.90 1.82 1.80 1.73 1.66 1.61 1.57 1.52 1.51 1.55 1.59 1.60 1.61 1.59 1.53 1.55 1.49 1.44 1.42 1.42 1.42 1.39 1.32 1.27 1.23 1.18 1.15 1.10 1.07 1.07 1.09 1.11 1.10 1.05 1.03 1.05 1.05 1.07 1.07 1.08 1.10 1.11 1.03 1.00 1.04 1.13 1.13 1.17 1.21 1.16 1.15 1.15 1.14 1.14 1.14 1.13 1.11 1.10 1.08 1.03 1.02 0.99 1.02 1.10 1.15 1.12 1.04 0.99
1.34 1.40 1.49 1.61 1.73 1.82 1.91 2.05 2.13 2.14 2.20 2.27 2.23 2.16 2.12 2.17 2.08 2.02 1.98 1.92 1.81 1.73 1.68 1.63 1.57 1.54 1.56 1.60 1.61 1.62 1.66 1.62 1.59 1.54 1.49 1.45 1.45 1.46 1.44 1.40 1.39 1.32 1.24 1.19 1.17 1.13 1.10 1.12 1.12 1.13 1.09 1.05 1.04 1.04 1.04 1.04 1.06 1.07 1.07 1.08 1.10 1.09 1.10 1.13 1.17 1.20 1.21 1.19 1.16 1.13 1.10 1.07 1.04 1.02 1.02 1.04 1.10 1.17 1.17 1.12 1.11 1.19 1.27 1.22 1.13
1.29 1.33 1.38 1.51 1.62 1.70 1.76 1.86 2.00 2.11 2.15 2.22 2.23 2.12 2.11 2.03 1.99 1.97 1.98 2.01 1.93 1.83 1.77 1.70 1.62 1.57 1.59 1.63 1.67 1.72 1.74 1.74 1.66 1.58 1.54 1.53 1.50 1.48 1.47 1.47 1.47 1.43 1.32 1.22 1.20 1.21 1.25 1.22 1.21 1.19 1.12 1.08 1.05 1.04 1.04 1.05 1.07 1.05 1.03 1.07 1.08 1.11 1.12 1.14 1.15 1.12 1.10 1.08 1.08 1.05 1.04 1.04 1.00 0.98 0.97 0.94 0.95 1.02 1.11 1.27 1.34 1.32 1.30 1.32 1.33
1.20 1.26 1.30 1.38 1.51 1.60 1.65 1.70 1.81 1.99 2.09 2.16 2.20 2.18 2.13 2.12 2.05 1.90 1.82 1.84 1.87 1.90 1.82 1.79 1.68 1.59 1.58 1.62 1.68 1.72 1.77 1.77 1.79 1.72 1.65 1.61 1.56 1.53 1.53 1.54 1.52 1.45 1.41 1.34 1.34 1.34 1.34 1.33 1.30 1.24 1.17 1.12 1.10 1.10 1.10 1.10 1.08 1.07 1.08 1.08 1.08 1.11 1.15 1.15 1.12 1.09 1.06 1.04 1.00 0.97 0.96 0.98 0.98 0.96 0.97 1.03 1.03 1.06 1.14 1.22 1.30 1.38 1.38 1.40 1.45
1.11 1.17 1.24 1.29 1.35 1.46 1.53 1.60 1.69 1.79 1.96 2.03 2.09 2.14 2.12 2.10 2.03 2.01 1.92 1.83 1.80 1.86 1.89 1.84 1.71 1.65 1.63 1.61 1.63 1.69 1.74 1.77 1.76 1.77 1.71 1.68 1.67 1.66 1.64 1.61 1.57 1.54 1.46 1.44 1.45 1.43 1.42 1.44 1.41 1.34 1.27 1.23 1.21 1.20 1.18 1.15 1.14 1.13 1.13 1.13 1.13 1.15 1.14 1.11 1.09 1.09 1.04 1.00 0.97 0.98 0.99 1.01 1.02 1.04 1.12 1.17 1.20 1.24 1.22 1.25 1.32 1.39 1.47 1.52 1.54
1.05 1.10 1.17 1.23 1.25 1.30 1.36 1.48 1.58 1.66 1.72 1.86 1.96 2.04 2.11 2.09 2.00 1.95 1.96 1.96 1.91 1.86 1.85 1.81 1.80 1.72 1.66 1.64 1.67 1.72 1.79 1.81 1.78 1.78 1.78 1.81 1.82 1.81 1.78 1.74 1.69 1.66 1.62 1.58 1.57 1.56 1.54 1.51 1.48 1.45 1.42 1.39 1.36 1.32 1.27 1.25 1.24 1.23 1.23 1.23 1.21 1.17 1.13 1.09 1.07 1.05 1.01 1.03 1.04 1.01 1.02 1.09 1.14 1.18 1.22 1.28 1.26 1.20 1.21 1.21 1.25 1.30 1.39 1.40 1.41
1.02 1.06 1.11 1.16 1.20 1.21 1.23 1.27 1.41 1.53 1.58 1.61 1.71 1.85 1.99 2.03 2.03 2.01 2.02 1.99 1.90 1.85 1.90 1.85 1.82 1.78 1.71 1.72 1.79 1.84 1.86 1.89 1.90 1.95 1.97 1.93 1.92 1.93 1.90 1.84 1.82 1.79 1.73 1.69 1.67 1.63 1.60 1.58 1.55 1.52 1.49 1.48 1.46 1.46 1.44 1.44 1.39 1.36 1.35 1.34 1.32 1.29 1.25 1.18 1.12 1.08 1.06 1.08 1.10 1.10 1.12 1.17 1.26 1.29 1.29 1.32 1.31 1.31 1.31 1.26 1.21 1.22 1.31 1.34 1.29
0.97 1.01 1.05 1.14 1.16 1.20 1.16 1.18 1.24 1.34 1.45 1.49 1.54 1.61 1.72 1.89 1.93 1.93 1.94 1.98 1.94 1.92 1.88 1.89 1.85 1.90 1.88 1.88 1.94 1.92 1.93 2.00 1.99 2.02 2.05 2.03 1.99 1.99 1.96 1.92 1.88 1.86 1.82 1.81 1.80 1.77 1.71 1.66 1.62 1.59 1.55 1.50 1.47 1.45 1.44 1.44 1.43 1.39 1.36 1.36 1.35 1.35 1.34 1.34 1.33 1.29 1.26 1.25 1.21 1.23 1.23 1.24 1.20 1.23 1.29 1.31 1.33 1.36 1.39 1.34 1.27 1.23 1.25 1.26 1.19
0.94 0.99 1.04 1.09 1.12 1.18 1.17 1.18 1.14 1.17 1.27 1.39 1.46 1.54 1.59 1.63 1.74 1.81 1.95 2.03 2.06 2.02 2.00 1.98 1.98 1.89 1.89 1.96 1.99 1.96 1.97 2.00 2.11 2.20 2.16 2.14 2.09 2.04 1.95 1.92 1.99 1.97 2.00 2.02 1.99 1.97 1.88 1.76 1.67 1.62 1.56 1.49 1.45 1.42 1.41 1.40 1.39 1.40 1.40 1.38 1.37 1.36 1.36 1.35 1.29 1.27 1.31 1.29 1.22 1.19 1.18 1.20 1.21 1.25 1.27 1.24 1.26 1.28 1.36 1.34 1.33 1.23 1.22 1.25 1.16
0.84 0.93 0.99 1.03 1.07 1.12 1.13 1.16 1.15 1.16 1.19 1.24 1.31 1.38 1.55 1.63 1.65 1.67 1.71 1.92 2.00 2.02 2.04 1.95 1.96 1.97 1.90 1.91 1.96 1.90 1.96 2.15 2.29 2.23 2.21 2.19 2.18 2.11 2.05 2.03 2.06 2.06 2.09 2.08 2.03 1.91 1.85 1.78 1.74 1.68 1.62 1.55 1.46 1.42 1.42 1.43 1.41 1.40 1.41 1.41 1.41 1.38 1.36 1.36 1.35 1.35 1.37 1.34 1.32 1.28 1.24 1.22 1.18 1.20 1.20 1.19 1.24 1.29 1.36 1.34 1.29 1.29 1.19 1.14 1.13
0.76 0.83 0.92 0.97 1.03 1.07 1.10 1.12 1.14 1.13 1.15 1.16 1.22 1.26 1.30 1.43 1.58 1.64 1.70 1.73 1.79 1.86 1.96 1.96 1.96 1.98 1.95 1.87 2.02 2.10 2.07 2.15 2.20 2.23 2.27 2.25 2.17 2.12 2.07 2.05 2.04 2.08 2.11 2.04 1.94 1.84 1.78 1.74 1.73 1.74 1.71 1.67 1.58 1.52 1.50 1.47 1.46 1.46 1.46 1.49 1.45 1.41 1.41 1.40 1.41 1.44 1.41 1.37 1.35 1.34 1.32 1.26 1.20 1.19 1.17 1.18 1.20 1.26 1.32 1.35 1.30 1.23 1.15 1.13 1.14
0.73 0.75 0.84 0.93 0.99 1.06 1.11 1.14 1.13 1.11 1.12 1.14 1.19 1.20 1.20 1.22 1.31 1.51 1.62 1.69 1.72 1.75 1.80 1.85 1.88 1.94 2.04 2.11 2.10 2.22 2.23 2.18 2.15 2.21 2.28 2.29 2.21 2.15 2.09 2.07 2.05 2.04 2.03 2.01 1.85 1.76 1.75 1.71 1.71 1.72 1.74 1.71 1.70 1.69 1.64 1.57 1.56 1.55 1.56 1.53 1.50 1.52 1.47 1.44 1.51 1.52 1.47 1.43 1.39 1.34 1.32 1.29 1.25 1.23 1.21 1.20 1.23 1.24 1.26 1.26 1.23 1.16 1.14 1.19 1.21
0.76 0.75 0.78 0.86 0.93 0.99 1.06 1.10 1.11 1.09 1.07 1.06 1.11 1.18 1.16 1.17 1.20 1.26 1.44 1.59 1.64 1.67 1.68 1.76 1.80 1.87 2.00 2.11 2.21 2.21 2.26 2.32 2.28 2.25 2.23 2.28 2.20 2.16 2.13 2.12 2.08 2.07 2.04 1.93 1.83 1.78 1.76 1.71 1.67 1.69 1.71 1.71 1.76 1.77 1.74 1.70 1.64 1.62 1.63 1.59 1.55 1.57 1.59 1.63 1.65 1.59 1.56 1.53 1.50 1.42 1.38 1.34 1.31 1.27 1.25 1.23 1.23 1.19 1.19 1.18 1.20 1.19 1.17 1.16 1.22
0.78 0.77 0.76 0.79 0.86 0.92 0.99 1.03 1.07 1.08 1.07 1.04 1.08 1.15 1.17 1.18 1.22 1.28 1.28 1.31 1.44 1.58 1.69 1.76 1.82 1.89 1.98 2.06 2.11 2.13 2.16 2.19 2.20 2.19 2.18 2.20 2.18 2.15 2.11 2.07 2.07 2.08 2.04 1.93 1.88 1.81 1.80 1.75 1.71 1.70 1.72 1.75 1.77 1.78 1.75 1.74 1.74 1.72 1.69 1.68 1.67 1.68 1.69 1.74 1.71 1.67 1.66 1.64 1.57 1.51 1.46 1.41 1.40 1.33 1.27 1.25 1.27 1.21 1.16 1.16 1.18 1.15 1.12 1.15 1.22
0.78 0.78 0.78 0.79 0.81 0.86 0.93 0.99 1.03 1.06 1.07 1.06 1.06 1.13 1.16 1.17 1.20 1.24 1.26 1.25 1.29 1.35 1.45 1.57 1.72 1.84 1.91 1.99 2.07 2.10 2.08 2.08 2.09 2.09 2.08 2.07 2.08 2.10 2.09 2.00 1.92 1.92 1.94 1.93 1.91 1.86 1.79 1.73 1.71 1.73 1.75 1.75 1.76 1.77 1.74 1.75 1.74 1.73 1.71 1.72 1.73 1.72 1.71 1.70 1.71 1.73 1.72 1.72 1.70 1.61 1.55 1.48 1.43 1.39 1.31 1.26 1.21 1.14 1.11 1.13 1.16 1.16 1.13 1.17 1.27
0.76 0.77 0.77 0.78 0.79 0.82 0.87 0.94 1.01 1.04 1.05 1.07 1.10 1.12 1.17 1.19 1.18 1.22 1.27 1.28 1.27 1.30 1.40 1.51 1.59 1.73 1.86 1.92 1.99 2.05 2.08 2.08 2.05 2.03 2.01 2.02 2.02 2.02 1.91 1.86 1.85 1.87 1.89 1.92 1.89 1.87 1.86 1.81 1.78 1.78 1.81 1.81 1.82 1.79 1.78 1.77 1.78 1.79 1.81 1.81 1.79 1.79 1.76 1.71 1.70 1.71 1.74 1.75 1.72 1.71 1.67 1.60 1.52 1.42 1.36 1.31 1.22 1.18 1.17 1.18 1.19 1.20 1.20 1.26 1.36
0.74 0.76 0.77 0.78 0.79 0.81 0.84 0.90 0.98 1.03 1.04 1.08 1.10 1.11 1.16 1.20 1.19 1.16 1.22 1.27 1.26 1.25 1.31 1.43 1.50 1.56 1.71 1.81 1.89 1.95 1.99 2.03 2.05 2.05 2.02 2.00 2.00 1.98 1.92 1.89 1.86 1.89 1.91 1.92 1.91 1.88 1.85 1.83 1.82 1.81 1.80 1.79 1.81 1.81 1.79 1.77 1.76 1.76 1.78 1.78 1.78 1.78 1.78 1.79 1.78 1.75 1.72 1.70 1.72 1.73 1.70 1.63 1.59 1.50 1.36 1.26 1.22 1.23 1.23 1.25 1.26 1.24 1.23 1.31 1.41
0.74 0.76 0.78 0.78 0.79 0.80 0.81 0.84 0.90 0.99 1.03 1.06 1.10 1.14 1.13 1.16 1.18 1.14 1.11 1.19 1.29 1.28 1.22 1.29 1.39 1.42 1.48 1.61 1.83 1.85 1.86 1.91 1.93 1.94 1.96 1.94 1.90 1.87 1.88 1.89 1.91 1.89 1.89 1.95 1.96 1.90 1.87 1.88 1.89 1.86 1.84 1.86 1.85 1.84 1.81 1.79 1.79 1.79 1.79 1.80 1.81 1.79 1.78 1.78 1.76 1.74 1.71 1.68 1.70 1.74 1.74 1.68 1.62 1.48 1.39 1.30 1.28 1.28 1.26 1.25 1.27 1.29 1.30 1.34 1.40
0.74 0.76 0.78 0.79 0.78 0.78 0.79 0.82 0.86 0.93 1.00 1.04 1.07 1.12 1.13 1.15 1.18 1.16 1.12 1.10 1.20 1.26 1.26 1.26 1.31 1.39 1.50 1.62 1.69 1.80 1.76 1.70 1.69 1.71 1.76 1.81 1.87 1.88 1.87 1.87 1.88 1.90 1.93 1.96 1.98 1.96 1.93 1.90 1.92 1.94 1.92 1.91 1.90 1.90 1.89 1.89 1.91 1.89 1.87 1.85 1.83 1.83 1.83 1.83 1.82 1.80 1.76 1.72 1.70 1.75 1.77 1.74 1.68 1.54 1.43 1.36 1.33 1.35 1.33 1.31 1.31 1.33 1.35 1.35 1.38
0.75 0.75 0.78 0.80 0.79 0.79 0.81 0.83 0.85 0.88 0.93 0.99 1.03 1.07 1.13 1.15 1.16 1.17 1.15 1.11 1.10 1.14 1.21 1.23 1.22 1.27 1.40 1.52 1.50 1.53 1.49 1.55 1.61 1.66 1.70 1.70 1.70 1.74 1.80 1.81 1.82 1.85 1.88 1.92 1.97 1.98 1.95 1.93 1.96 1.96 1.95 1.94 1.92 1.90 1.88 1.88 1.90 1.93 1.95 1.93 1.89 1.88 1.90 1.94 1.96 1.93 1.88 1.88 1.84 1.84 1.84 1.83 1.81 1.73 1.53 1.39 1.37 1.39 1.37 1.36 1.37 1.42 1.47 1.49 1.52
0.76 0.76 0.76 0.79 0.80 0.79 0.80 0.82 0.84 0.86 0.90 0.94 0.99 1.05 1.08 1.15 1.17 1.18 1.18 1.15 1.12 1.11 1.13 1.19 1.23 1.27 1.32 1.33 1.40 1.46 1.46 1.48 1.54 1.58 1.60 1.63 1.65 1.67 1.70 1.74 1.78 1.85 1.94 1.99 2.00 2.02 2.02 2.00 1.99 1.99 1.98 1.98 1.97 1.93 1.88 1.85 1.84 1.84 1.84 1.88 1.92 1.94 1.98 2.03 2.05 2.05 2.07 2.05 1.94 1.90 1.92 1.92 1.88 1.83 1.68 1.52 1.46 1.47 1.49 1.51 1.51 1.54 1.59 1.63 1.66
0.76 0.75 0.75 0.76 0.80 0.81 0.80 0.80 0.83 0.86 0.89 0.91 0.93 0.98 1.06 1.09 1.17 1.16 1.17 1.15 1.12 1.09 1.08 1.13 1.19 1.23 1.24 1.25 1.27 1.31 1.35 1.40 1.47 1.49 1.54 1.56 1.55 1.55 1.58 1.64 1.74 1.83 1.91 1.97 1.99 1.98 1.99 2.01 2.00 2.03 2.01 2.01 1.99 1.93 1.84 1.78 1.78 1.81 1.84 1.86 1.87 1.91 1.96 1.99 2.02 2.01 1.97 1.95 1.94 1.95 1.95 1.95 1.93 1.91 1.89 1.75 1.59 1.54 1.56 1.59 1.60 1.61 1.63 1.65 1.70
0.78 0.76 0.76 0.77 0.79 0.81 0.81 0.81 0.83 0.85 0.87 0.88 0.90 0.94 1.00 1.07 1.09 1.18 1.16 1.16 1.13 1.10 1.06 1.06 1.12 1.19 1.22 1.23 1.21 1.23 1.26 1.31 1.35 1.40 1.43 1.44 1.45 1.44 1.41 1.37 1.41 1.49 1.57 1.66 1.74 1.78 1.80 1.80 1.83 1.90 1.95 1.97 1.99 1.96 1.85 1.79 1.80 1.80 1.79 1.78 1.80 1.84 1.88 1.94 1.99 2.00 2.01 2.01 1.97 1.98 1.98 1.93 1.86 1.86 1.89 1.84 1.66 1.58 1.57 1.60 1.63 1.63 1.65 1.69 1.72
0.79 0.78 0.77 0.76 0.78 0.81 0.84 0.84 0.83 0.85 0.89 0.91 0.92 0.93 0.96 0.99 1.03 1.11 1.16 1.15 1.14 1.12 1.09 1.05 1.06 1.10 1.16 1.22 1.24 1.22 1.21 1.23 1.26 1.30 1.33 1.36 1.37 1.38 1.38 1.39 1.37 1.36 1.41 1.49 1.57 1.64 1.66 1.65 1.69 1.79 1.87 1.92 1.95 1.91 1.82 1.78 1.79 1.77 1.76 1.74 1.72 1.72 1.75 1.77 1.79 1.85 1.94 2.02 2.02 2.04 2.01 1.99 1.95 1.93 1.93 1.90 1.81 1.64 1.58 1.56 1.57 1.59 1.64 1.68 1.74
0.80 0.78 0.76 0.75 0.77 0.80 0.82 0.84 0.84 0.85 0.88 0.92 0.93 0.95 0.97 0.99 0.98 1.01 1.12 1.13 1.14 1.13 1.11 1.08 1.05 1.06 1.08 1.12 1.16 1.18 1.21 1.23 1.22 1.24 1.26 1.28 1.30 1.32 1.34 1.36 1.38 1.39 1.38 1.37 1.41 1.47 1.51 1.52 1.54 1.57 1.61 1.66 1.67 1.64 1.60 1.58 1.59 1.60 1.61 1.58 1.55 1.56 1.61 1.64 1.70 1.80 1.86 1.92 1.98 1.96 1.98 2.02 1.88 1.85 1.91 1.93 1.92 1.80 1.67 1.59 1.58 1.63 1.67 1.70 1.75
0.81 0.80 0.78 0.77 0.77 0.79 0.82 0.84 0.85 0.86 0.87 0.89 0.91 0.93 0.96 0.98 1.00 1.00 1.03 1.08 1.13 1.13 1.13 1.10 1.07 1.05 1.06 1.08 1.11 1.14 1.17 1.22 1.26 1.28 1.29 1.29 1.28 1.28 1.30 1.31 1.33 1.34 1.35 1.36 1.37 1.38 1.37 1.37 1.39 1.42 1.44 1.46 1.48 1.48 1.47 1.45 1.46 1.48 1.49 1.51 1.51 1.52 1.57 1.65 1.73 1.76 1.79 1.85 1.90 1.91 1.92 1.96 1.93 1.90 1.86 1.92 1.98 1.91 1.78 1.71 1.68 1.72 1.72 1.78 1.82
0.82 0.81 0.80 0.79 0.78 0.79 0.82 0.85 0.86 0.86 0.86 0.88 0.91 0.93 0.95 0.97 0.99 1.00 1.02 1.04 1.06 1.12 1.15 1.14 1.09 1.05 1.06 1.07 1.09 1.13 1.17 1.18 1.19 1.21 1.25 1.27 1.29 1.29 1.28 1.28 1.29 1.30 1.31 1.32 1.32 1.32 1.32 1.32 1.32 1.31 1.31 1.31 1.33 1.35 1.38 1.41 1.43 1.44 1.44 1.46 1.48 1.52 1.57 1.62 1.66 1.73 1.80 1.87 1.90 1.92 1.92 1.96 1.95 2.01 2.02 2.01 2.02 1.97 1.92 1.85 1.80 1.80 1.85 1.89 1.84
0.81 0.82 0.82 0.81 0.80 0.80 0.81 0.84 0.85 0.86 0.87 0.87 0.90 0.92 0.95 0.97 0.99 1.00 1.01 1.03 1.05 1.05 1.11 1.16 1.15 1.10 1.07 1.08 1.09 1.11 1.14 1.18 1.20 1.20 1.21 1.24 1.27 1.30 1.29 1.28 1.27 1.27 1.27 1.28 1.28 1.29 1.28 1.28 1.28 1.28 1.27 1.25 1.24 1.23 1.25 1.29 1.33 1.36 1.40 1.43 1.45 1.49 1.55 1.62 1.68 1.72 1.76 1.80 1.84 1.80 1.77 1.83 1.94 1.97 2.04 2.06 2.10 2.05 1.89 1.89 1.94 1.94 1.89 1.87 1.85
0.82 0.83 0.82 0.81 0.81 0.81 0.82 0.84 0.86 0.87 0.87 0.88 0.89 0.90 0.93 0.96 0.99 1.01 1.01 1.02 1.04 1.05 1.05 1.10 1.17 1.15 1.10 1.08 1.09 1.08 1.09 1.11 1.15 1.18 1.18 1.19 1.22 1.26 1.28 1.29 1.28 1.26 1.25 1.23 1.22 1.22 1.22 1.22 1.22 1.23 1.23 1.22 1.21 1.21 1.23 1.28 1.33 1.38 1.42 1.45 1.48 1.52 1.57 1.63 1.68 1.72 1.78 1.82 1.81 1.79 1.75 1.72 1.70 1.68 1.80 1.80 1.85 1.82 1.83 1.86 1.88 1.87 1.84 1.81 1.79
0.83 0.83 0.83 0.82 0.81 0.82 0.84 0.87 0.88 0.88 0.88 0.89 0.88 0.89 0.91 0.93 0.96 0.99 1.01 1.01 1.02 1.03 1.04 1.05 1.09 1.15 1.12 1.09 1.07 1.05 1.04 1.05 1.08 1.12 1.15 1.16 1.17 1.18 1.21 1.24 1.25 1.25 1.23 1.21 1.21 1.20 1.20 1.20 1.19 1.20 1.20 1.19 1.21 1.22 1.22 1.23 1.27 1.32 1.36 1.41 1.47 1.53 1.58 1.63 1.68 1.72 1.76 1.77 1.77 1.77 1.78 1.72 1.66 1.69 1.73 1.73 1.79 1.83 1.83 1.81 1.80 1.84 1.82 1.78 1.71
0.83 0.83 0.83 0.83 0.82 0.83 0.84 0.86 0.87 0.88 0.88 0.89 0.88 0.88 0.90 0.92 0.95 0.98 1.00 1.01 1.01 1.01 1.02 1.02 1.03 1.09 1.13 1.12 1.10 1.07 1.05 1.04 1.06 1.09 1.11 1.11 1.10 1.10 1.12 1.16 1.19 1.21 1.22 1.20 1.18 1.17 1.15 1.14 1.14 1.16 1.17 1.18 1.18 1.18 1.20 1.21 1.22 1.24 1.28 1.35 1.42 1.48 1.53 1.58 1.62 1.67 1.69 1.70 1.68 1.65 1.68 1.68 1.65 1.69 1.76 1.79 1.79 1.78 1.76 1.77 1.74 1.73 1.72 1.71 1.66
Wind_Speed
25 24 24 24 24 23 23 23 23 22 22 22 22 22 21 21 20 19 19 18 17 16 15 15 14 13 12 12 11 11 11 10 10 9 9 9 9 8 8 8 8 7 7 7 7 7 7 7 7 8 8 8 8 9 9 9 9 9 9 10 10 10 10 10 10 9 9 8 8 7 7 7 7 7 7 7 7 8 9 9 9 9 8 7 8
26 25 25 25 24 24 24 23 23 23 23 23 23 23 22 22 21 21 20 19 19 18 17 16 15 14 14 13 12 12 12 11 11 10 10 10 9 9 9 9 9 8 8 8 8 8 8 8 8 8 8 8 9 9 9 9 9 10 10 10 11 11 11 11 11 10 10 9 9 9 8 8 8 8 9 9 9 10 10 10 10 10 10 9 8
26 26 25 25 25 25 24 24 24 24 24 23 23 23 23 23 22 22 21 20 20 19 18 18 17 16 15 14 14 13 13 12 12 12 11 11 10 10 9 9 9 9 9 9 9 8 8 8 8 8 8 9 9 9 9 9 9 10 10 10 11 11 11 12 12 11 11 11 10 10 10 10 10 10 10 10 11 11 11 11 10 11 11 10 9
27 27 26 26 26 26 25 25 25 25 24 24 24 24 24 23 23 23 23 22 21 20 20 19 18 17 17 16 15 15 14 14 13 13 13 12 11 11 10 10 10 10 10 9 9 9 9 9 9 9 9 9 10 10 10 10 10 10 10 11 11 12 12 12 12 12 12 12 11 11 11 11 11 11 11 11 11 11 11 12 11 11 12 11 10
27 27 27 27 27 27 26 26 26 26 25 25 25 25 24 24 24 24 24 23 23 22 21 21 20 19 18 18 17 17 16 15 15 15 14 14 13 12 12 11 11 11 11 11 10 10 10 10 10 10 10 10 10 10 10 11 11 11 11 11 11 11 12 12 12 12 12 12 12 12 12 12 11 11 12 12 12 12 12 12 12 12 12 11 10
28 28 28 28 28 28 28 27 27 27 26 26 26 25 25 25 25 24 25 25 24 23 23 22 21 21 20 19 19 18 18 17 17 17 16 15 15 14 13 13 12 12 12 12 12 11 11 11 11 11 11 11 11 11 11 11 12 12 12 12 12 12 12 12 13 13 13 13 13 13 12 12 12 12 12 13 13 13 13 13 13 13 13 13 12
28 28 28 29 29 28 28 28 28 28 27 27 26 26 26 26 25 25 25 25 25 25 24 24 23 22 22 21 20 20 19 19 19 18 18 17 16 16 15 14 14 13 13 13 13 13 12 12 12 12 12 12 12 12 12 12 12 13 13 13 13 13 13 13 13 14 14 14 14 14 13 13 13 13 13 14 14 14 14 14 14 13 14 14 14
28 28 29 29 29 29 29 28 28 28 28 28 27 27 26 26 26 26 25 25 26 26 26 25 24 24 23 22 22 21 21 20 20 20 20 19 18 17 17 16 15 15 14 14 14 14 13 13 13 13 13 13 13 13 13 13 13 13 13 14 14 14 14 14 14 14 15 15 15 15 15 15 15 15 15 15 15 15 15 15 15 15 15 15 15
27 28 29 29 29 29 29 29 29 29 29 28 28 28 27 27 27 26 26 26 26 26 26 26 25 25 24 24 23 23 22 22 21 21 21 20 20 19 18 18 17 17 16 16 15 15 15 14 14 14 14 14 14 14 14 13 13 14 14 14 15 15 15 15 15 15 16 16 16 16 16 16 16 16 16 15 15 16 16 16 17 17 16 16 16
27 28 28 29 29 29 29 29 30 30 30 29 29 29 28 28 28 27 27 27 26 26 26 26 26 25 25 25 24 24 24 23 23 23 22 22 21 21 20 20 19 18 18 17 17 16 16 16 16 15 15 15 15 15 15 15 15 15 15 15 15 15 16 16 16 16 16 16 17 16 17 16 16 16 16 16 17 17 17 17 17 17 17 17 17
27 27 28 28 29 29 29 30 30 30 30 30 29 29 29 29 28 28 28 27 27 27 27 27 26 26 26 26 25 25 25 25 25 25 24 24 23 22 21 21 20 20 19 19 18 18 18 17 17 17 17 17 17 17 17 17 17 17 17 17 17 17 16 16 16 17 17 17 17 17 17 17 17 17 17 17 17 17 17 17 18 18 18 18 18
25 27 28 28 28 29 29 30 30 31 31 31 30 30 30 30 29 29 29 28 28 28 27 27 27 27 27 26 26 26 26 26 26 26 26 25 25 24 23 22 22 21 21 20 20 19 19 19 18 18 17 18 18 18 18 18 18 18 18 19 19 19 19 18 18 18 18 18 18 18 18 18 18 18 18 18 18 18 18 19 19 19 19 19 19
24 26 27 28 29 29 29 30 30 31 31 31 31 31 31 31 30 30 30 29 29 29 28 28 28 28 27 27 27 27 27 26 27 27 26 26 26 26 25 24 23 23 22 22 21 21 20 20 20 19 18 18 19 19 19 19 19 19 19 20 20 20 21 21 20 20 19 19 19 19 19 19 19 19 19 19 19 20 20 20 20 20 21 20 20
24 25 26 28 29 29 29 30 31 31 31 31 31 32 32 32 31 31 30 30 30 30 29 29 29 28 28 28 28 28 27 27 27 27 27 27 27 27 26 26 25 24 24 23 22 22 22 21 21 21 21 20 20 20 20 19 19 19 20 20 20 21 21 21 22 22 21 21 21 21 21 21 21 21 21 21 21 21 21 21 21 22 22 22 22
23 24 25 27 28 29 30 30 30 31 31 31 32 32 32 32 32 32 31 31 31 30 30 30 29 29 29 29 28 28 28 28 28 28 28 28 28 27 27 27 26 26 25 25 24 24 23 23 23 23 22 22 22 21 21 20 20 20 20 20 20 21 21 21 22 22 22 22 22 22 22 22 22 21 22 22 22 22 21 22 22 22 22 23 23
23 23 25 26 27 28 30 30 31 31 31 32 32 32 32 32 32 32 32 32 31 31 30 30 30 30 29 29 29 29 28 28 28 28 29 28 28 27 28 28 27 27 27 26 26 26 25 25 24 24 24 23 23 23 22 22 21 21 21 21 21 21 21 21 22 22 22 23 23 23 23 22 22 22 22 22 22 21 21 21 22 22 22 22 22
23 24 25 26 26 27 29 30 31 31 31 32 33 33 32 32 32 32 32 32 32 31 31 30 30 30 30 30 29 29 29 28 28 29 29 28 28 28 28 28 28 28 28 28 28 27 27 27 26 26 25 25 24 24 24 23 23 22 22 22 22 22 22 22 22 22 23 23 23 23 23 23 23 23 23 22 22 21 21 21 21 21 21 21 21
22 24 25 27 27 28 28 29 31 32 32 32 33 33 33 33 33 33 33 33 32 32 31 31 30 30 30 30 30 29 29 29 29 29 29 29 28 28 28 28 28 29 29 29 29 29 29 29 28 27 27 26 26 25 24 24 24 24 24 23 23 23 23 22 22 22 23 23 24 24 24 24 24 23 23 23 23 22 21 21 21 20 20 20 20
23 24 25 27 28 29 29 29 30 31 32 33 33 33 34 34 33 33 33 33 33 32 32 31 31 30 30 30 30 30 30 29 29 29 30 29 29 29 28 28 28 29 29 29 29 29 29 30 30 29 29 28 27 26 25 25 25 25 25 24 25 25 24 24 23 23 23 23 24 24 24 24 24 24 24 24 24 23 22 22 21 21 21 20 20
24 25 26 27 28 29 30 31 31 31 32 33 34 33 33 33 34 34 34 33 33 33 32 32 31 30 30 30 29 30 30 30 30 30 30 30 30 30 29 29 29 29 29 29 29 29 29 29 29 30 30 29 28 27 26 26 26 26 25 25 25 25 25 25 24 24 24 24 24 24 24 24 24 24 24 24 24 24 23 23 22 21 21 21 20
25 26 26 27 27 29 30 31 32 32 32 32 33 33 32 32 33 33 34 33 33 33 32 32 31 31 30 30 30 30 30 30 29 30 31 31 31 31 30 29 29 29 29 29 29 29 29 29 28 29 29 29 29 28 27 27 27 26 26 26 26 26 25 25 25 25 25 25 25 25 24 25 25 25 25 25 25 24 24 24 23 22 22 22 21
27 27 27 27 28 29 29 30 31 33 33 32 32 32 32 32 32 33 33 33 34 34 33 32 31 31 30 30 30 30 30 30 30 30 31 31 31 31 31 30 30 29 29 29 29 28 28 28 28 27 28 28 28 28 28 28 27 27 27 27 27 26 26 26 25 26 26 26 26 26 26 25 26 26 26 25 25 25 24 24 24 24 23 23 23
28 28 28 28 28 29 29 30 30 32 33 33 32 32 32 32 32 33 33 34 34 34 33 32 31 31 30 30 30 30 30 30 31 31 31 31 31 31 31 31 30 29 29 29 28 28 28 28 28 27 27 27 27 27 27 27 27 28 28 28 28 27 27 26 26 26 27 27 26 26 26 26 26 26 26 26 26 25 24 24 24 24 24 24 24
29 29 29 28 28 28 29 30 30 31 32 32 32 32 32 32 32 32 33 33 34 34 33 32 32 31 30 29 30 30 30 30 30 30 30 30 30 30 30 30 30 29 29 28 27 26 26 26 27 27 27 26 27 27 27 26 27 27 28 28 28 27 27 27 27 27 27 27 27 27 26 26 26 26 26 26 26 25 25 25 25 25 25 25 25
29 29 30 30 29 29 29 29 30 31 31 31 32 32 32 32 32 32 32 32 33 34 33 32 32 31 30 29 30 30 29 29 29 29 29 29 30 29 30 30 29 29 28 27 27 26 25 25 25 26 26 26 26 26 26 26 26 27 27 26 26 27 27 27 27 27 27 27 26 26 27 27 27 27 26 26 26 25 25 25 26 26 26 25 25
30 30 30 31 31 30 30 30 30 31 31 32 32 32 32 32 32 32 32 32 32 33 33 32 31 31 30 30 30 30 29 29 29 28 28 28 29 29 29 29 29 29 29 28 27 27 26 25 25 25 25 25 25 25 25 25 26 26 26 25 25 26 26 26 26 27 27 27 27 27 27 27 27 27 26 26 26 26 26 26 26 26 26 26 25
32 31 31 31 31 32 32 32 31 31 31 31 32 32 33 33 32 32 33 33 33 34 34 32 31 31 31 31 31 31 30 30 29 29 28 28 28 28 29 29 29 29 29 29 28 28 27 27 26 26 26 25 25 25 25 25 25 25 25 25 25 25 25 25 25 26 26 27 27 27 27 27 27 27 27 27 26 26 26 26 26 27 27 27 26
34 33 33 33 32 32 32 33 33 32 31 31 32 32 33 34 34 33 33 33 33 33 33 32 31 31 31 31 31 31 31 31 30 30 29 28 28 28 28 29 29 29 29 29 29 29 28 27 27 27 27 26 26 26 26 25 25 25 25 26 26 26 26 25 25 25 26 26 27 27 27 27 27 28 27 27 27 27 27 27 27 27 28 28 27
37 36 35 35 34 33 32 33 34 33 32 32 32 32 33 34 36 36 35 34 33 33 32 32 31 31 32 32 32 32 32 31 31 31 30 29 28 27 27 28 28 28 29 29 28 28 28 28 27 27 27 27 27 27 27 26 26 26 26 26 27 27 26 26 26 26 26 26 27 27 28 28 28 28 28 28 28 28 28 28 28 29 29 29 28
38 38 37 37 36 35 34 34 34 34 33 32 32 32 33 34 35 37 37 37 36 35 34 33 33 33 33 33 34 34 34 33 31 30 30 30 29 27 27 27 27 27 27 27 27 27 27 28 28 28 27 27 28 28 28 27 27 27 27 27 28 28 28 27 27 27 27 27 27 28 28 28 29 29 29 29 29 29 29 29 29 30 30 29 29
40 39 39 39 38 37 36 35 34 34 34 33 33 33 33 33 34 35 37 38 39 38 37 36 36 35 34 35 35 35 36 35 33 30 29 28 28 28 28 27 28 27 27 27 27 27 27 28 28 28 28 28 29 29 29 29 28 28 27 27 28 28 29 29 29 28 28 28 28 28 28 29 29 29 30 30 30 30 30 30 30 30 31 31 30
41 40 40 41 40 40 38 37 36 35 34 34 34 34 34 34 34 34 35 36 38 39 39 38 37 36 35 36 37 37 37 37 35 32 30 28 27 28 28 28 28 28 27 27 27 27 28 28 28 28 29 29 30 30 30 30 30 29 29 29 28 28 29 29 29 29 29 29 29 29 29 29 29 30 30 31 31 31 31 31 31 31 31 32 31
42 42 41 42 42 42 41 39 38 37 36 36 35 35 34 35 34 34 35 35 36 38 39 39 38 37 35 36 38 39 39 39 38 35 32 30 29 29 29 29 29 28 29 28 28 28 28 28 28 28 29 30 30 30 31 31 31 31 31 30 30 30 29 29 29 29 30 30 30 30 30 30 30 30 30 30 31 31 32 32 32 32 32 32 31
44 43 42 42 43 43 42 41 40 39 38 37 36 35 35 35 35 35 36 36 36 37 37 39 39 39 37 36 37 38 38 39 38 37 34 32 31 31 31 30 30 30 30 30 30 30 30 30 29 29 29 30 30 30 30 30 31 32 32 32 32 31 31 30 30 30 30 30 30 31 31 31 31 31 30 30 30 31 32 32 32 32 32 32 32
46 45 44 43 43 43 43 42 42 41 40 38 37 36 35 35 35 35 36 36 36 36 37 37 38 38 37 36 36 36 36 36 37 36 36 35 34 33 33 33 32 32 32 32 32 31 32 31 30 30 30 30 30 31 31 31 31 31 32 32 33 33 32 32 31 31 31 31 31 31 31 31 32 31 31 31 30 30 31 32 31 32 32 32 32
47 46 45 44 43 43 43 43 42 42 41 40 39 37 36 35 35 35 35 36 36 36 37 37 37 37 37 37 36 36 35 35 35 35 35 35 35 35 35 35 34 33 33 33 33 33 33 33 32 31 31 31 31 31 32 32 32 32 32 33 33 33 33 33 33 32 32 32 32 31 31 32 32 32 32 31 30 30 31 31 30 31 32 32 32
47 47 46 45 44 44 43 43 43 42 42 41 40 39 37 36 35 35 35 35 36 36 37 37 37 37 36 36 36 35 35 34 34 34 34 35 35 36 36 36 36 35 34 34 34 34 34 34 33 32 32 31 32 32 32 32 32 32 33 34 34 34 34 34 34 34 33 33 33 32 32 32 32 32 32 32 31 30 30 30 30 30 31 32 33
48 47 47 47 46 44 44 43 43 43 43 42 41 41 39 37 35 35 35 35 35 36 36 36 36 36 36 36 35 35 34 34 35 35 35 35 35 36 36 37 37 37 36 35 35 35 34 34 34 33 33 32 32 32 32 32 32 32 33 34 34 34 35 35 35 35 35 35 34 33 33 33 33 33 33 33 32 31 31 31 31 30 31 32 33
47 47 47 47 47 46 45 44 44 44 44 43 42 41 41 39 36 35 35 35 35 36 35 34 34 35 35 35 35 35 35 35 35 35 36 36 36 36 37 37 37 37 37 36 36 36 35 35 34 34 34 33 33 33 33 33 33 33 33 34 34 34 35 35 35 35 35 35 35 35 34 34 35 34 35 35 34 33 33 33 33 33 33 33 33
47 47 47 47 47 47 46 45 44 44 44 44 43 42 41 40 38 36 36 35 35 35 36 35 34 34 35 35 35 35 35 36 36 36 36 36 36 37 37 38 38 38 37 37 37 37 36 36 35 34 34 34 34 34 34 34 35 35 35 35 36 36 36 36 36 36 36 36 37 37 37 36 36 36 37 37 37 36 35 35 35 35 35 34 34
46 46 46 47 47 47 47 46 45 44 44 45 44 43 42 41 39 38 37 37 35 35 36 36 36 35 35 35 35 36 36 36 36 36 36 36 37 37 37 38 38 38 38 38 38 38 38 38 38 37 36 36 35 35 35 36 36 37 37 37 38 38 38 38 38 38 37 37 37 38 38 38 37 37 38 38 38 37 37 37 37 36 36 36 35
46 46 46 46 46 46 46 46 46 46 45 45 44 44 44 42 41 39 38 38 37 35 35 36 37 37 36 35 36 36 36 36 37 37 36 36 37 37 37 37 37 37 37 37 37 37 38 38 38 38 38 38 37 37 37 37 38 38 39 39 39 40 40 40 40 40 40 39 39 39 39 39 39 39 39 39 39 39 39 38 38 38 37 37 36
45 46 46 46 45 45 46 46 46 46 46 45 45 44 43 43 42 41 40 38 38 37 36 35 36 37 37 36 36 36 35 35 36 36 36 35 35 35 35 35 35 35 36 37 37 37 37 37 38 38 38 38 38 38 38 38 38 39 40 40 41 41 41 41 41 41 41 42 41 40 40 39 40 41 41 41 40 40 40 40 40 39 38 37 36
44 45 45 45 45 45 45 46 46 46 46 46 45 44 43 42 42 42 41 40 39 38 37 36 36 36 36 36 36 36 35 35 35 35 35 35 35 34 34 33 33 33 34 35 36 37 37 37 38 38 39 39 39 39 39 39 39 39 40 41 41 42 42 42 42 43 43 43 43 42 41 41 41 42 42 42 42 42 41 41 40 40 38 37 36
42 43 44 45 45 45 45 45 45 45 45 45 45 44 43 42 42 42 42 42 41 39 38 37 36 36 36 36 35 35 35 35 36 36 36 36 35 35 34 34 33 33 33 33 34 35 35 36 37 37 38 39 39 40 40 40 40 40 41 41 42 42 42 42 43 43 43 44 44 44 44 43 43 43 43 43 43 42 42 41 40 39 38 38 37
41 42 43 44 44 44 44 44 44 44 44 44 44 43 43 42 42 41 41 42 42 41 39 38 37 37 36 36 35 35 35 35 35 36 36 36 36 36 35 35 34 34 34 34 34 34 35 35 35 36 37 37 38 39 39 40 40 41 41 42 43 43 43 42 43 43 44 44 44 44 44 44 45 45 45 45 44 43 42 41 41 40 39 37 37
39 40 41 42 43 44 44 44 44 43 43 43 43 43 42 42 42 42 41 40 41 41 40 39 38 37 36 36 35 35 35 34 34 35 35 36 36 36 36 36 35 35 34 34 34 34 34 35 35 35 35 36 36 37 38 39 40 41 41 41 42 43 43 43 43 43 43 43 44 44 44 45 46 47 48 47 46 44 42 41 40 39 38 37 36
38 39 40 40 41 42 42 43 43 43 42 42 42 42 42 41 41 41 41 40 39 39 39 39 38 37 36 35 35 35 35 35 35 35 36 36 36 36 36 36 36 35 35 34 34 34 34 34 34 34 34 34 34 35 36 37 38 39 40 41 41 42 42 43 43 43 43 43 43 43 43 44 45 45 45 44 43 42 41 40 39 38 37 36 34
36 38 38 39 39 40 41 41 42 41 41 41 41 41 40 40 40 40 40 39 38 38 37 37 37 37 36 35 35 34 34 34 34 35 35 35 36 36 36 36 35 35 35 34 34 33 33 33 33 33 33 33 33 33 34 34 35 36 37 39 40 40 40 41 41 42 42 43 42 42 42 42 42 41 40 40 39 39 39 37 36 34 32 31 30
34 35 36 37 38 38 39 40 40 40 40 40 40 39 39 39 39 38 38 38 38 37 36 35 36 37 36 36 34 33 33 33 33 33 33 33 34 34 35 34 34 34 34 33 33 33 33 33 32 32 32 31 32 32 32 32 33 33 34 36 37 38 39 39 40 40 40 41 41 40 40 40 40 40 39 39 38 37 35 33 32 30 28 27 27
31 32 34 35 36 37 37 38 39 39 39 39 38 38 38 38 38 37 37 37 37 36 36 35 35 36 36 36 34 33 32 32 31 31 31 32 32 32 32 32 32 32 32 32 32 32 32 32 32 31 31 31 30 30 30 30 30 30 31 32 33 34 35 36 36 36 37 37 37 37 37 38 38 37 35 34 33 32 31 29 28 27 26 27 28
Wind_Direction
214 213 213 213 213 213 214 214 214 215 214 215 215 216 216 217 217 217 217 217 217 217 217 217 217 218 219 219 220 221 221 221 221 221 222 222 223 223 222 221 221 220 220 220 220 221 221 222 222 222 223 225 224 223 224 223 224 226 228 229 229 230 231 235 238 241 244 246 251 258 265 272 276 281 290 293 297 306 313 319 325 327 324 322 326
217 216 214 214 215 215 216 216 216 216 215 216 217 217 218 218 218 219 219 218 218 219 219 220 221 222 223 224 224 224 224 224 224 224 223 224 225 227 226 225 224 223 225 225 225 225 225 226 226 225 225 226 227 227 226 226 227 229 231 232 233 234 235 237 241 245 249 251 255 260 265 270 274 280 287 291 294 300 305 311 316 319 321 319 318
217 218 217 216 216 216 217 218 218 217 217 218 218 219 219 219 220 220 221 221 221 221 222 222 223 224 226 227 227 227 227 226 227 226 225 226 227 229 231 230 228 227 228 229 229 228 229 229 229 229 228 229 230 230 229 229 230 231 233 234 235 236 237 239 242 247 252 255 259 263 266 271 275 280 284 288 292 296 300 306 309 312 316 315 312
216 218 219 218 218 218 219 219 220 219 219 220 220 220 221 221 221 221 223 224 224 224 225 225 225 225 227 229 230 230 230 229 229 229 228 229 230 232 234 235 234 233 232 232 232 231 231 232 233 232 232 233 233 232 232 231 231 233 235 236 238 238 239 241 243 247 253 258 262 265 269 273 276 280 284 287 290 293 297 302 305 308 313 311 307
216 217 219 220 220 220 220 221 221 221 222 222 222 222 222 222 222 223 224 225 226 227 228 228 228 228 229 231 231 232 233 232 232 231 231 232 233 234 236 238 238 238 238 237 236 235 235 235 235 234 234 236 236 236 236 235 234 235 236 237 238 239 240 242 244 247 252 258 263 267 271 275 278 281 284 287 290 292 295 299 302 305 309 309 305
217 218 219 221 221 222 222 222 223 223 223 224 224 224 224 224 224 225 225 226 228 229 230 231 231 231 232 233 234 235 235 235 234 234 234 235 236 236 237 239 240 241 241 241 241 240 240 239 238 237 237 238 239 239 240 239 239 238 238 239 240 241 242 244 245 248 252 257 262 267 271 275 279 282 283 286 289 291 293 296 299 301 305 306 304
219 219 220 221 222 223 224 224 224 225 225 225 225 225 226 225 225 226 227 227 229 230 231 233 233 234 234 235 236 237 237 237 236 236 236 237 237 238 239 240 241 242 243 243 243 243 243 243 242 241 240 240 241 241 242 243 244 243 243 243 244 245 245 246 247 250 253 257 261 265 269 272 277 280 283 285 287 289 291 293 296 298 300 302 303
221 222 223 223 224 225 225 225 226 226 226 227 227 227 227 227 228 228 229 229 230 231 232 233 235 236 236 237 237 238 238 238 237 237 237 238 239 240 240 241 242 243 243 244 244 244 244 244 244 243 243 243 243 243 244 245 246 247 247 248 248 249 250 250 251 252 255 258 261 264 268 272 275 279 282 284 286 287 288 290 293 296 297 299 300
223 223 224 226 226 226 226 227 227 227 228 228 228 228 229 229 230 230 231 231 232 233 233 234 235 237 238 238 239 239 239 239 238 237 238 238 240 241 242 242 243 243 244 244 245 246 246 246 245 245 245 244 244 245 246 247 248 249 250 251 252 253 254 254 255 256 257 260 262 265 269 272 275 278 280 282 284 286 288 289 292 294 295 297 298
225 225 226 228 229 228 228 228 229 229 229 229 230 230 230 230 231 232 232 233 234 235 235 236 237 238 239 240 240 240 240 241 239 238 238 239 240 242 243 243 243 244 244 245 246 247 247 248 248 247 247 247 246 246 248 249 250 251 252 253 254 255 256 257 258 258 260 262 264 266 269 271 274 277 280 282 284 286 288 289 290 292 294 296 297
228 227 227 229 230 230 230 229 229 230 230 230 231 231 232 232 232 233 233 234 235 236 236 237 238 239 240 241 241 242 242 242 240 239 239 240 240 242 243 244 244 244 244 245 246 247 248 249 249 250 250 251 250 249 250 251 252 253 254 255 256 257 258 259 260 260 262 263 265 267 269 272 275 277 280 283 284 286 288 289 290 291 292 294 296
231 229 229 230 231 231 232 231 231 231 231 231 232 232 233 234 234 234 235 235 236 236 237 238 239 240 241 241 242 243 243 242 240 239 239 240 240 241 243 244 244 244 244 245 246 246 247 248 249 251 252 252 252 253 253 253 253 254 255 255 256 258 259 260 261 262 263 265 266 268 270 272 275 278 280 282 283 285 286 288 289 290 290 291 292
233 232 231 232 232 232 233 232 232 232 232 232 233 233 234 234 235 236 236 237 237 238 238 238 239 239 241 242 242 243 244 243 241 241 240 240 240 241 242 244 244 245 245 245 246 246 247 248 249 251 252 252 253 254 255 255 255 255 256 257 258 258 259 260 261 262 264 266 267 268 270 273 276 278 279 281 282 284 285 286 287 288 289 289 290
235 234 233 233 232 232 233 233 233 233 233 233 233 234 235 235 236 237 238 239 239 239 239 239 239 239 240 241 242 243 244 243 242 241 241 241 240 241 242 243 244 245 246 246 247 247 248 249 251 252 253 253 254 254 254 256 257 257 258 258 259 259 260 260 261 262 263 264 266 268 270 272 275 277 278 280 281 283 284 285 286 287 287 288 289
236 235 235 234 233 233 233 234 234 234 235 234 234 235 235 236 237 237 238 240 240 241 241 240 240 240 240 240 241 242 243 242 241 241 241 241 241 242 243 243 244 246 246 247 248 249 250 251 252 253 254 254 255 255 255 256 257 258 258 259 260 261 261 261 261 262 263 264 265 267 269 271 273 275 277 279 281 283 284 285 286 286 287 287 287
239 237 236 236 236 234 233 234 234 235 235 236 236 236 236 236 237 238 239 240 240 241 242 242 241 241 241 241 242 242 243 242 241 241 241 241 242 242 243 243 244 246 247 248 249 250 251 252 253 254 255 255 255 254 255 257 257 258 258 259 260 261 262 262 261 261 262 264 265 267 268 270 272 274 276 278 280 283 285 286 286 287 287 287 286
242 240 238 238 238 237 235 234 234 235 236 236 237 237 237 237 238 238 239 240 240 240 241 242 242 242 242 242 242 242 243 242 241 241 241 241 242 243 244 244 245 246 247 248 249 250 251 252 253 255 256 256 256 255 255 256 257 258 259 259 260 262 263 263 262 261 261 263 264 266 267 269 271 272 274 276 279 282 284 286 287 286 286 286 286
247 244 241 239 239 239 237 236 235 235 235 236 237 238 238 238 239 239 240 240 240 240 240 241 242 242 242 242 242 242 243 242 240 240 240 240 242 243 245 245 246 247 247 248 249 250 251 252 253 254 256 256 256 255 255 256 257 258 259 260 261 261 262 263 263 263 263 264 265 266 267 268 270 271 273 275 276 278 280 283 285 286 285 285 285
251 249 246 243 240 239 238 238 237 236 236 236 236 237 238 239 239 239 240 240 240 240 240 239 240 241 241 242 242 242 243 243 241 240 240 240 242 244 245 246 247 248 248 249 249 250 251 252 252 253 255 256 255 255 255 256 257 258 259 260 260 261 262 263 263 263 264 265 266 267 268 269 270 271 272 273 274 275 277 279 282 283 283 284 285
252 252 249 246 243 241 239 238 237 238 238 237 236 236 236 236 237 238 239 239 240 240 239 239 239 239 240 240 241 241 243 244 242 241 241 241 242 244 245 246 247 248 248 249 250 250 251 252 252 252 253 254 254 254 254 255 256 258 259 260 260 261 262 263 263 263 264 265 266 266 268 269 270 271 272 273 273 273 274 276 278 279 280 281 282
250 251 251 248 245 243 242 241 240 240 242 242 240 238 237 236 236 235 236 237 238 239 239 238 239 239 239 240 240 240 242 243 243 242 242 242 242 243 244 245 246 247 248 249 250 251 251 252 252 252 252 252 253 253 253 255 256 257 258 259 261 262 263 263 263 263 264 265 266 266 267 268 270 271 272 272 273 273 274 274 274 275 276 278 280
248 249 249 248 246 244 244 244 243 242 244 245 245 244 242 242 240 238 237 236 236 237 238 238 239 239 239 239 240 241 242 243 243 243 242 242 242 243 244 244 245 246 247 248 249 250 251 251 252 251 251 252 253 253 253 254 256 257 259 259 261 262 262 263 263 264 264 265 265 266 267 268 269 270 270 271 272 272 273 273 272 272 273 275 277
246 247 248 247 246 245 244 245 244 243 244 245 246 246 245 245 244 243 242 241 238 236 236 237 238 238 238 239 240 241 243 243 244 243 243 243 242 242 242 243 244 245 247 248 249 251 251 252 252 251 251 252 253 254 254 255 256 258 259 259 260 261 261 262 263 264 264 264 265 265 266 266 267 268 269 270 271 270 271 271 271 272 273 274 275
246 245 245 246 246 246 245 244 244 244 244 245 246 246 245 244 244 245 246 245 243 239 236 235 236 237 238 239 240 241 242 243 243 242 242 241 241 241 241 241 242 244 246 247 249 250 251 252 252 251 251 252 253 255 255 256 257 258 258 259 259 260 261 261 262 263 263 264 264 264 265 265 266 267 268 269 270 270 270 270 270 271 272 273 275
247 246 245 244 245 246 246 244 243 244 244 245 246 246 245 244 244 245 245 246 245 242 238 235 234 235 237 238 240 241 240 240 240 240 239 238 239 239 239 239 240 242 244 246 247 249 250 251 252 252 252 252 254 256 257 257 257 257 258 258 259 260 260 260 261 262 263 264 264 265 265 265 266 267 268 269 269 270 270 271 271 271 272 273 274
247 246 246 245 245 246 247 246 245 244 245 245 245 245 245 244 244 245 244 244 244 243 240 237 235 235 237 238 239 239 238 238 238 237 237 238 238 238 238 238 239 240 242 244 246 248 249 250 252 252 253 253 254 256 257 257 257 257 258 258 259 259 259 260 260 261 262 263 264 265 265 266 267 268 268 269 269 269 270 270 271 271 272 272 273
246 246 246 246 245 246 246 247 247 247 246 246 246 245 244 244 245 245 244 243 244 244 242 238 235 235 236 238 238 237 236 235 235 235 235 236 237 237 238 239 240 240 241 243 245 247 248 250 251 253 254 254 255 256 258 258 258 258 258 258 258 259 259 260 261 261 262 262 263 264 265 266 267 268 268 269 269 269 269 269 269 270 271 271 272
245 245 247 247 246 246 246 247 248 248 248 248 247 246 245 244 244 244 244 244 245 245 244 241 239 238 238 239 239 238 236 234 233 233 233 233 234 236 238 239 240 240 241 242 244 245 247 249 251 252 253 254 255 256 257 258 258 258 258 258 258 259 259 260 261 262 263 263 263 264 265 265 266 267 268 269 269 269 269 268 268 269 269 270 270
245 245 246 247 246 246 246 246 246 248 249 249 248 248 246 245 245 244 244 245 246 247 247 245 243 242 241 242 243 242 239 237 236 235 233 231 232 235 238 240 242 242 243 244 245 246 247 249 250 251 252 253 255 256 257 258 259 259 259 258 258 259 259 259 260 262 263 264 264 264 264 265 265 266 267 268 268 269 269 268 267 268 268 268 269
245 244 245 245 246 246 246 246 246 247 248 249 249 249 248 246 245 244 244 245 246 247 248 247 245 244 244 245 246 244 242 242 243 241 235 229 229 234 239 241 243 245 246 245 246 247 248 250 251 253 254 255 256 257 258 258 260 261 261 260 260 260 260 260 261 261 263 264 265 265 265 266 266 266 266 267 267 268 268 268 267 267 267 267 268
246 245 244 244 246 247 246 246 246 246 247 248 249 250 250 248 247 245 245 245 246 246 247 247 247 246 245 245 245 244 244 244 245 244 238 231 230 235 240 241 242 244 244 245 247 248 250 252 253 254 255 256 256 257 258 259 260 261 261 262 262 262 262 262 262 262 263 264 265 265 266 266 266 266 266 267 267 268 268 268 268 267 267 267 267
246 245 244 244 245 246 246 246 247 247 247 247 248 248 249 250 249 248 246 245 244 245 247 247 247 246 246 245 245 245 244 244 244 243 242 238 236 239 243 244 244 244 245 246 249 251 252 254 255 255 255 256 256 257 258 259 260 261 261 261 262 262 263 263 263 264 264 265 266 266 266 267 267 267 268 267 267 267 267 267 268 267 267 267 267
245 245 245 244 244 245 246 247 247 247 247 247 247 247 248 248 249 250 249 247 245 245 245 245 246 246 248 248 248 248 248 247 246 247 247 245 243 244 246 247 247 246 246 248 251 253 254 255 255 256 256 256 256 257 257 258 260 261 261 261 262 262 263 263 264 264 264 264 265 266 267 267 268 268 269 268 268 268 267 267 267 266 266 266 266
244 244 245 245 245 245 245 246 247 248 247 247 246 246 246 247 248 249 250 250 249 247 245 244 244 245 248 250 250 250 250 250 251 251 251 250 247 246 247 248 249 249 249 250 251 253 255 256 256 256 256 256 256 257 257 258 259 260 261 262 262 262 263 263 263 264 265 265 266 267 268 268 268 268 269 269 268 268 267 267 266 265 264 264 265
243 243 244 244 244 244 244 244 246 247 247 246 246 245 245 247 247 247 248 249 249 249 248 246 245 244 246 248 249 249 250 250 250 251 250 249 248 247 247 249 250 251 251 252 252 253 255 256 257 257 257 257 257 257 258 258 258 258 259 260 261 261 262 262 262 263 265 266 267 267 268 268 268 268 269 269 268 268 267 267 266 265 264 264 265
243 243 243 243 243 244 244 244 245 246 246 246 245 244 245 246 247 247 247 248 248 248 248 247 246 245 246 247 249 249 249 249 249 248 248 247 246 246 247 249 251 252 252 253 253 254 255 256 257 257 258 258 258 258 259 258 258 257 258 259 260 261 261 262 262 263 264 266 267 268 268 268 268 268 269 269 269 268 267 267 267 266 265 265 267
243 242 242 242 242 243 243 243 243 244 245 246 245 244 245 246 246 246 246 247 247 247 247 247 246 246 246 246 247 248 248 248 248 248 247 246 245 245 247 248 250 251 252 253 254 254 254 255 256 258 258 258 259 259 260 260 260 259 259 260 261 262 262 263 263 264 265 266 267 267 268 268 269 269 269 269 270 269 268 267 267 266 265 266 268
243 242 242 242 242 242 243 243 243 243 243 244 244 244 244 245 246 245 245 246 246 246 246 247 247 246 245 245 246 246 246 247 247 247 247 246 246 246 247 248 250 251 252 253 254 254 254 254 256 257 258 259 259 260 261 261 261 261 261 261 262 262 263 264 264 264 265 265 266 266 267 268 269 269 269 269 270 270 269 268 267 266 265 266 268
244 243 242 242 242 242 242 242 242 242 242 242 243 244 244 244 245 245 245 245 245 245 245 246 246 245 245 245 245 246 246 246 246 246 246 246 247 247 248 249 250 252 252 252 253 254 254 255 255 256 257 259 260 260 261 262 262 262 262 263 264 264 264 265 265 265 265 265 265 266 267 267 268 268 268 268 269 269 269 268 267 267 267 267 268
243 242 242 241 241 241 241 241 241 241 241 241 241 242 243 244 244 245 245 245 246 245 244 244 245 245 244 245 245 246 246 246 247 247 247 247 248 249 249 250 251 252 252 252 252 253 254 255 255 256 257 259 261 261 262 262 263 263 264 264 264 264 264 265 265 265 266 266 265 266 267 268 268 268 267 267 267 268 268 267 267 267 268 268 269
241 241 241 241 240 240 240 240 240 241 241 241 240 240 241 242 243 244 244 245 245 245 244 244 244 244 245 246 247 247 246 246 247 247 248 249 249 250 250 251 251 251 251 251 252 253 254 255 255 256 257 259 261 262 263 263 263 264 265 265 265 265 265 266 266 266 267 267 266 265 266 267 267 268 267 267 267 267 268 267 267 267 268 268 270
239 239 240 240 239 239 239 239 240 240 241 241 240 239 239 240 241 243 244 244 244 244 244 244 244 245 246 247 248 247 247 247 248 248 249 250 250 251 251 252 252 252 252 252 253 254 255 255 255 256 256 258 261 263 263 263 263 264 265 265 266 266 266 266 266 266 267 267 266 265 265 266 267 267 267 267 267 267 267 267 267 267 267 268 269
239 239 238 238 238 238 238 238 239 240 241 241 240 240 239 239 240 242 243 243 242 243 244 245 245 245 246 246 247 247 247 248 248 248 249 250 250 250 251 252 252 252 253 253 254 255 256 257 257 257 257 258 260 262 263 264 264 265 265 266 267 267 267 267 267 267 267 267 267 265 265 266 268 267 265 265 266 266 266 266 265 265 266 268 268
240 239 238 237 237 238 238 238 238 239 240 241 241 240 239 239 240 241 242 242 242 242 243 244 245 245 245 246 246 246 246 247 248 248 248 248 248 249 250 251 252 253 254 255 255 256 257 257 258 258 258 259 260 262 263 264 265 265 266 267 268 268 268 268 269 269 268 267 267 266 266 266 268 267 265 264 265 264 264 264 264 263 264 266 266
240 239 238 237 237 237 237 237 237 238 239 240 240 239 239 239 239 240 241 241 241 241 242 243 244 245 245 245 245 246 246 247 247 247 247 247 247 248 249 250 252 253 255 256 257 258 259 259 259 259 260 260 262 263 264 264 264 265 266 267 267 268 268 269 269 269 268 268 268 268 267 266 266 267 265 264 263 263 263 263 263 262 262 263 263
239 239 238 237 236 236 237 237 237 237 237 238 239 239 239 239 239 240 240 241 240 240 241 243 244 244 244 244 244 244 245 245 246 246 247 247 248 249 250 251 253 254 256 257 258 259 260 260 260 261 262 262 263 264 265 265 265 266 266 266 267 267 268 268 269 269 269 269 269 269 268 266 266 267 266 264 262 262 262 263 262 261 260 260 260
238 238 238 237 236 236 236 237 237 237 237 237 238 239 239 239 240 240 240 240 240 239 240 241 243 243 243 243 243 243 243 244 245 246 247 248 250 250 251 252 253 255 256 258 259 260 261 262 262 263 264 265 266 266 267 267 267 267 267 267 267 267 268 268 269 269 270 270 269 269 269 269 270 270 268 264 261 259 260 261 261 259 257 257 258
237 237 237 237 236 235 235 236 236 236 236 236 237 238 239 240 240 240 240 239 239 239 239 240 241 241 242 242 241 242 243 244 244 246 248 249 251 252 252 252 253 254 255 257 258 260 261 262 263 264 265 267 268 269 270 269 269 268 269 269 268 268 269 269 269 269 270 270 270 270 270 271 272 272 269 264 260 259 259 260 259 257 255 255 256
237 236 236 236 235 235 235 235 236 235 235 235 236 237 238 239 239 239 239 238 238 238 238 238 238 239 240 241 241 241 242 244 245 246 248 249 251 252 252 253 253 254 255 256 257 259 261 262 263 265 266 268 269 271 272 272 272 272 271 271 271 271 271 270 270 270 270 270 270 271 271 271 272 271 268 264 261 261 261 261 259 257 255 254 253
238 236 235 234 235 234 234 235 235 234 234 234 235 236 237 237 238 238 237 237 237 236 237 238 238 238 238 240 240 241 241 243 244 246 247 249 250 251 252 253 253 254 255 256 257 258 260 261 263 264 266 268 270 271 273 274 275 275 275 275 275 274 273 272 271 271 271 270 270 270 270 270 270 270 267 264 262 261 260 259 256 255 255 254 255
239 236 234 233 233 234 234 234 233 233 233 233 234 235 236 236 237 236 236 236 236 236 236 238 238 238 238 238 239 240 241 242 243 244 246 247 248 250 251 252 253 254 255 256 257 258 260 261 262 263 265 267 269 271 273 275 276 277 279 279 279 278 275 274 273 272 271 270 271 271 271 271 269 266 262 260 259 257 256 254 253 253 256 260 263